Weather History for Jacksonville Craig, FL

Change the Weather History Date:

Friday, March 15, 2013

  Actual Average Record
Temperature  
Mean Temperature 55 °F -  
Max Temperature 73 °F 70 °F 86 °F (2009)
Min Temperature 37 °F 52 °F 37 °F (2013)
Degree Days  
Heating Degree Days 10    
Growing Degree Days 5 (Base 50)    
Moisture  
Dew Point 35 °F    
Average Humidity 54    
Maximum Humidity 89    
Minimum Humidity 24    
Precipitation  
Precipitation 0.00 in - - ()
Sea Level Pressure  
Sea Level Pressure 30.22 in    
Wind  
Wind Speed 2 mph (SSW)    
Max Wind Speed 10 mph    
Max Gust Speed -    
Visibility 10 miles    
Events      
Averages and records for this station are not official NWS values.
T = Trace of Precipitation, MM = Missing Value Source: NWS Daily Summary

Daily Weather History Graph

Daily Weather History Graph

Search for Another Location

Airport:

Trip Planner

Search our weather history database for the weather conditions in past years. The results will help you decide how hot, cold, wet, or windy it might be!

Date:

Astronomy

Mar. 15, 2013 Rise Set
Actual Time 7:35 AM EDT 7:34 PM EDT
Civil Twilight 7:11 AM EDT 7:58 PM EDT
Nautical Twilight 6:43 AM EDT 8:26 PM EDT
Astronomical Twilight 6:15 AM EDT 8:54 PM EDT
Moon 9:43 AM EDT (3/15) 11:27 PM EDT (3/15)
Length of Visible Light 12h 46m
Length of Day
11h 58m
Waxing Crescent, 15% of the Moon is Illuminated
Mar 15
Waxing Crescent
Mar 19
First Quarter
Mar 27
Full
Apr 3
Last Quarter
Apr 10
New

Hourly Weather History & Observations

Time (EDT) Temp. Dew Point Humidity Pressure Visibility Wind Dir Wind Speed Gust Speed Precip Events Conditions
12:53 AM 39.9 °F 35.1 °F 83% 30.27 in 10.0 mi Calm Calm - N/A   Clear
1:53 AM 39.9 °F 36.0 °F 86% 30.27 in 10.0 mi Calm Calm - N/A   Clear
2:53 AM 37.0 °F 34.0 °F 89% 30.26 in 8.0 mi Calm Calm - N/A   Clear
3:53 AM 39.9 °F 34.0 °F 79% 30.24 in 10.0 mi Calm Calm - N/A   Clear
4:53 AM 37.9 °F 34.0 °F 86% 30.23 in 9.0 mi Calm Calm - N/A   Clear
5:53 AM 39.0 °F 34.0 °F 82% 30.24 in 10.0 mi Calm Calm - N/A   Clear
6:53 AM 37.0 °F 33.1 °F 86% 30.26 in 9.0 mi Calm Calm - N/A   Clear
7:53 AM 37.9 °F 33.1 °F 83% 30.27 in 9.0 mi Calm Calm - N/A   Clear
8:53 AM 46.9 °F 36.0 °F 66% 30.29 in 10.0 mi Calm Calm - N/A   Clear
9:53 AM 53.1 °F 30.9 °F 43% 30.30 in 10.0 mi Calm Calm - N/A   Clear
10:53 AM 59.0 °F 24.1 °F 26% 30.29 in 10.0 mi NNW 5.8 mph - N/A   Clear
11:53 AM 62.1 °F 28.9 °F 29% 30.28 in 10.0 mi NW 8.1 mph - N/A   Clear
12:53 PM 64.9 °F 30.9 °F 28% 30.26 in 10.0 mi NNE 5.8 mph - N/A   Clear
1:53 PM 68.0 °F 32.0 °F 26% 30.22 in 10.0 mi NNW 5.8 mph - N/A   Clear
2:53 PM 70.0 °F 33.1 °F 26% 30.19 in 10.0 mi Variable 3.5 mph - N/A   Clear
3:53 PM 71.1 °F 32.0 °F 24% 30.16 in 10.0 mi West 6.9 mph - N/A   Clear
4:53 PM 73.0 °F 34.0 °F 24% 30.14 in 10.0 mi Variable 5.8 mph - N/A   Clear
5:53 PM 69.1 °F 41.0 °F 36% 30.13 in 10.0 mi ESE 5.8 mph - N/A   Clear
6:53 PM 66.9 °F 42.1 °F 40% 30.13 in 10.0 mi ESE 5.8 mph - N/A   Clear
7:53 PM 62.1 °F 42.1 °F 48% 30.14 in 10.0 mi South 5.8 mph - N/A   Clear
8:53 PM 59.0 °F 42.1 °F 53% 30.14 in 10.0 mi South 5.8 mph - N/A   Clear
9:53 PM 59.0 °F 39.9 °F 49% 30.16 in 10.0 mi SSW 10.4 mph - N/A   Clear
10:53 PM 55.9 °F 39.9 °F 55% 30.17 in 10.0 mi South 4.6 mph - N/A   Clear
11:53 PM 54.0 °F 39.9 °F 59% 30.17 in 10.0 mi SSW 3.5 mph - N/A   Clear